Regional Weather Roundup
Issued by NWS

Home | Current Version | Previous Version | Graphics & Text | Print | Product List | Glossary On
Versions: 1 2 3 4 5 6 7 8 9 10 11 12 13 14 15 16 17 18 19 20 21 22 23 24 25 26 27 28 29 30 31 32 33 34 35 36 37 38 39 40 41 42 43 44 45 46 47 48 49 50
000
ASUS43 KDMX 270401
RWRIA

WEATHER ROUNDUP FOR IOWA
NATIONAL WEATHER SERVICE DES MOINES IA
1000 PM CST SUN FEB 26 2017

NOTE: "FAIR" INDICATES FEW OR NO CLOUDS BELOW 12,000 FEET WITH NO
SIGNIFICANT WEATHER AND/OR OBSTRUCTIONS TO VISIBILITY.

* - THESE STATIONS ARE NOT NWS STATIONS...THUS NOT UNDER NWS
QUALITY CONTROL.  THEY ALSO DO NOT REPORT WEATHER SUCH
AS PRECIPITATION OR FOG.

IAZ001>003-012>014-020>022-031>034-043>046-270500-
   NORTHWEST IOWA

CITY           SKY/WX    TMP DP  RH WIND       PRES   REMARKS
CARROLL *        N/A     25  25 100 CALM      29.99S
CHEROKEE *       N/A     19  18  95 CALM      29.98S
DENISON *        N/A     21  19  93 E5        29.97S WCI  15
LE MARS *        N/A     25  21  86 S6        29.98R WCI  18
SHELDON *        N/A     28  28 100 S12       29.93R WCI  18
SIOUX CITY       N/A     20  17  88 SE7       29.98R WCI  11
SPENCER          N/A     20  17  88 S7        29.96R WCI  11
STORM LAKE *     N/A     25  21  86 S8        29.97S WCI  16
$$

IAZ055>058-069>071-079>083-090>094-270500-
   SOUTHWEST IOWA

CITY           SKY/WX    TMP DP  RH WIND       PRES   REMARKS
ATLANTIC *       N/A     27  25  93 CALM      30.01R
AUDUBON *        N/A     21  19  93 CALM      30.00R
CLARINDA *       N/A     27  27 100 CALM      30.04S
COUNCIL BLFS *   N/A     28  23  80 SE7       30.00R WCI  21
CRESTON *      CLOUDY    28  23  80 E5        30.02S WCI  23
HARLAN  *        N/A     23  23 100 CALM      30.03R
LAMONI           N/A     36  21  54 NE3       30.02R
RED OAK *        N/A     27  23  86 CALM      30.02R
SHENANDOAH *     N/A     30  25  80 CALM      30.03R
$$

IAZ047>049-059>061-072>074-084-270500-
   CENTRAL IOWA

CITY           SKY/WX    TMP DP  RH WIND       PRES   REMARKS
AMES             N/A     27  26  96 CALM      30.02R
ANKENY *         N/A     25  23  93 CALM      30.04R
BOONE *          N/A     30  27  86 W3        30.00R
CHARITON *     CLOUDY    32  23  69 E6        30.03S WCI  26
DES MOINES       N/A     32  21  64 CALM      30.03R
GRINNELL*      MOCLDY    30  23  75 CALM      30.04R
MARSHALLTOWN     N/A     27  24  89 CALM      30.01R
NEWTON *       CLOUDY    30  21  69 CALM      30.02R
PELLA *        MOCLDY    31  24  76 SE5       30.06R WCI  27
PERRY *          N/A     28  27  95 CALM      30.01S
$$

IAZ004>006-015-016-023>025-035-036-270500-
   NORTH CENTRAL IOWA

CITY           SKY/WX    TMP DP  RH WIND       PRES   REMARKS
ALGONA *         N/A     18  18 100 S9        29.97S WCI   6
CLARION *        N/A     19  19 100 S6        30.00R WCI  11
ESTHERVILLE      N/A     21  19  92 S9        29.95R WCI  11
FORT DODGE *     N/A     21  18  86 CALM      30.01R
MASON CITY       N/A     24  19  81 SW7       30.00R WCI  16
FOREST CITY *    N/A     12  10  92 CALM      29.98S
WEBSTER CITY *   N/A     21  19  93 CALM      29.99R
IOWA FALLS *     N/A     26  24  92 CALM      30.01S
$$

IAZ007>011-017>019-026>030-037>042-050>054-066-270500-
   NORTHEAST IOWA

CITY           SKY/WX    TMP DP  RH WIND       PRES   REMARKS
CEDAR RAPIDS   MOCLDY    27  24  89 CALM      30.03R
CHARLES CITY *   N/A     23  21  93 SW5       30.01R WCI  17
CLINTON *        N/A     33  25  72 SW6       30.05R WCI  28
DECORAH *        N/A     27  23  86 W3        29.99R
DUBUQUE          N/A     29  24  82 NW3       30.01R
MONTICELLO *     N/A     27  23  86 CALM      30.03R
OELWEIN *        N/A     27  27 100 NW7       30.02R WCI  19
WATERLOO         N/A     23  18  81 CALM      30.02R
$$

IAZ064-065-067-068-078-270500-
   EAST CENTRAL IOWA

CITY           SKY/WX    TMP DP  RH WIND       PRES   REMARKS
DAVENPORT        N/A     33  25  72 CALM      30.05R
IOWA CITY      CLOUDY    32  24  72 CALM      30.06R
MUSCATINE *    CLOUDY    36  27  69 CALM      30.06S
QUAD CITIES      N/A     32  28  85 SW3       30.05R
$$

IAZ062-063-075>077-085>089-095>099-270500-
   SOUTHEAST IOWA

CITY           SKY/WX    TMP DP  RH WIND       PRES   REMARKS
BURLINGTON     CLOUDY    40  32  73 S7        30.05R
FAIRFIELD *    MOCLDY    34  30  86 N3        30.04S
KEOKUK *       CLOUDY    39  27  60 SW12      30.06R WCI  32
CENTERVILLE *  MOCLDY    39  30  70 CALM      30.05R
OTTUMWA        MOCLDY    36  22  56 N5        30.04R WCI  32
WASHINGTON *   CLOUDY    32  25  74 CALM      30.06R
$$

ABBREVIATIONS USED IN REMARKS
   TC - TEMPERATURES IN CELSIUS
  WCI - WIND CHILL INDEX
   HX - HEAT INDEX
  VSB - VISIBILITY
$$





USA.gov is the U.S. government's official web portal to all federal, state and local government web resources and services.